Back to catalog

CZ-6A DEB

AliveSSO
NORAD 54330·DEBRIS·🇨🇳 China

Launched Nov 11, 2022 from Taiyuan Satellite Launch Center

Loading…

Next Passes (next 24 hours)

TLE

FreshSource: Space-Track

Epoch: Sep 14, 2026, 12:16 UTC

1 54330U 22151BZ  26257.51177699  .00001900  00000-0  75081-3 0  9997
2 54330  98.7556 281.9582 0053629  66.6810 294.0002 14.29395680198983

Track CZ-6A DEB in real time with AllMySat

Download on the App Store